Location: Kawakawa
(35.3830°S, 174.0670°E)
Time: 03:35:42
(UTC+13:00)

Transit 4A - Visible Passes

Search period start: 06 December 2019 00:00
Search period end: 16 December 2019 00:00
Orbit: 869 x 975 km, 66.8° (Epoch: 04 December)

Date Brightness Start Highest point End Pass type
(mag) Time Alt. Az. Time Alt. Az. Time Alt. Az.
10 Dec 10.4 04:36:45 10° ENE 04:38:50 12° E 04:40:55 10° E visible
11 Dec 10.1 04:43:42 10° NNE 04:47:51 20° ENE 04:52:05 10° ESE visible
12 Dec 9.4 04:51:47 10° NNE 04:56:55 31° ENE 05:02:13 10° SE visible
13 Dec 8.7 05:00:24 10° N 05:06:05 49° ENE 05:11:58 10° SE visible
14 Dec 8.1 05:09:23 10° NNW 05:15:19 76° ENE 05:21:29 10° SSE visible
15 Dec 10.1 03:35:58 10° NE 03:39:05 15° ENE 03:42:13 10° ESE visible
15 Dec 8.0 05:18:42 10° NNW 05:24:38 72° WSW 05:30:50 10° SSE visible
